User: anonymous   Login
Location: Unspecified
(0.0000°N, 0.0000°E)
Time: 00:17:04
(UTC+00:00)
Language:

Sunsat (SO-35) - Orbit

View from above orbital plane
View from above orbital plane
View from above satellite
View from above satellite

Ground track
Ground track

The orbit data is extracted from the following two-line orbital elements,

1 25636U 99008C   17328.55136720  .00000021  00000-0  13087-4 0  9994
2 25636  96.4520 179.8076 0145756 173.5063 186.8068 14.44633177987923
Epoch (UTC): 24 November 2017 13:13:58
Eccentricity: 0.0145756
inclination: 96.4520°
perigee height: 639 km
apogee height: 847 km
right ascension of ascending node: 179.8076°
argument of perigee: 173.5063°
revolutions per day: 14.44633177
mean anomaly at epoch: 186.8068°
orbit number at epoch: 98792

The dashed part of the orbit path shows where the satellite is in the earth's shadow,  

DLR